Wind_Speed
27 25 24 25 24 23 22 22 24 20 27 24 27 25 25 27 27 27 28 30 31 33 33 32 34 38 40 41 42 41 41 44 43 42 41 41 42 43 45 45 46 45 39 42
30 32 30 29 28 29 28 27 30 34 34 28 25 27 27 28 29 28 30 31 33 34 35 35 38 40 42 43 43 42 43 45 44 43 43 43 44 45 46 46 45 38 44 45
28 34 32 34 35 33 34 33 35 38 41 36 29 28 28 29 30 30 30 32 35 36 35 37 40 42 44 44 42 43 45 46 46 45 45 44 44 47 45 45 42 44 45 45
30 34 33 28 32 35 34 37 39 42 43 40 36 32 31 31 31 31 32 33 35 35 36 38 41 43 44 43 44 46 46 46 46 45 44 45 47 48 47 46 46 49 48 42
35 35 30 35 36 37 39 41 43 43 43 39 36 32 32 29 29 30 31 32 33 34 36 40 42 43 43 44 47 48 47 46 46 46 45 46 48 49 50 49 50 46 44 37
39 43 39 31 36 42 44 44 40 42 39 36 31 29 35 28 28 27 27 30 33 36 38 40 41 42 44 46 47 46 46 47 48 47 46 47 48 50 48 47 42 39 37 32
42 43 35 39 44 45 41 33 39 36 35 34 32 33 33 33 32 31 30 31 32 34 36 38 41 43 45 44 44 47 48 50 50 46 46 48 48 47 46 43 39 36 32 31
38 36 34 42 45 41 41 39 38 36 36 37 37 34 34 35 33 33 34 34 35 37 39 40 41 41 42 42 46 49 50 51 46 42 45 48 45 44 44 42 35 35 31 31
37 33 40 45 44 43 42 42 40 38 36 36 36 36 36 37 37 38 38 39 38 39 40 39 38 39 40 44 47 49 48 46 43 42 44 43 41 44 44 43 38 33 27 27
42 44 45 46 45 45 44 43 43 41 39 39 39 40 40 40 39 40 40 41 39 39 37 38 40 42 43 45 45 46 46 44 43 43 42 42 43 42 40 35 31 22 23 24
45 46 45 46 45 46 47 47 45 44 43 42 41 40 40 42 39 39 40 40 41 40 40 42 44 44 45 46 45 44 43 42 42 41 41 40 40 38 34 30 24 22 25 21
46 47 46 46 48 49 49 48 47 45 43 41 40 41 42 41 40 41 43 42 41 42 45 44 46 46 46 46 44 42 40 40 38 34 38 36 40 37 33 25 20 21 19 18
47 46 47 48 48 49 47 47 47 45 43 41 40 41 42 44 45 45 47 45 45 47 46 45 44 45 46 43 40 39 38 36 34 35 37 36 34 36 31 22 19 20 19 18
47 47 48 49 47 45 44 44 43 42 41 40 40 41 44 46 48 48 49 48 49 50 50 50 48 46 43 39 38 37 35 34 34 36 36 37 36 33 25 23 25 18 18 19
41 42 43 41 43 43 42 41 41 40 41 41 43 45 47 48 50 50 52 52 53 56 56 53 48 44 39 38 36 35 33 34 34 37 35 34 33 25 25 22 21 11 15 19
39 39 40 41 41 41 41 39 38 38 40 42 42 45 47 48 49 50 53 54 55 52 51 48 45 40 38 37 34 32 31 31 34 33 33 33 31 27 25 26 29 19 15 15
41 41 41 41 41 41 39 38 37 36 38 40 42 44 45 47 47 50 53 53 52 48 45 42 39 37 37 34 30 27 28 30 31 31 31 31 31 28 21 17 18 21 20 21
44 43 42 43 43 43 41 41 40 38 40 41 43 44 47 49 51 50 48 47 41 37 38 37 36 34 32 30 27 27 29 30 29 27 26 25 28 28 29 33 37 24 27 24
47 46 44 42 40 40 38 38 36 36 38 42 46 48 48 50 48 44 45 37 36 35 35 35 32 29 27 28 28 29 30 30 27 26 25 26 26 27 26 26 24 23 25 24
46 45 42 40 38 35 34 35 36 39 41 43 44 40 43 44 39 38 39 39 38 34 31 28 27 27 27 28 30 30 31 28 25 26 29 29 30 31 30 29 29 29 29 29
45 43 41 41 40 39 37 38 38 36 36 31 29 33 38 34 34 39 39 38 33 30 28 26 24 25 27 29 31 31 31 29 29 29 27 27 27 28 29 30 30 30 29 29
39 32 33 34 34 35 36 37 35 33 30 27 29 30 25 28 34 35 34 31 30 29 27 27 26 27 28 29 30 28 26 25 25 25 25 26 27 27 28 29 30 30 30 30
26 25 25 26 31 28 24 20 17 18 26 25 27 22 22 26 28 29 30 31 31 30 29 29 28 27 27 25 25 25 26 27 28 28 28 28 28 29 30 31 31 31 30 28
13 16 15 14 13 15 15 16 19 19 19 21 20 20 23 25 28 29 27 26 27 27 26 25 24 24 25 26 27 29 28 27 27 28 28 29 30 31 29 26 24 24 25 25
10 9 7 9 11 8 13 12 13 15 16 17 18 20 22 25 25 23 24 23 23 23 24 25 26 26 27 28 28 26 26 28 29 29 29 29 26 20 22 23 24 24 22 22
5 4 5 8 7 9 11 13 16 18 18 19 21 21 20 21 22 23 24 24 25 26 26 27 28 29 26 24 26 28 29 29 27 26 23 18 19 22 23 22 20 18 17 18
4 7 9 11 11 12 15 16 18 19 18 18 19 19 19 22 22 23 24 25 26 27 27 27 27 27 27 28 29 29 27 24 22 17 16 18 21 18 16 14 13 12 12 13
Wind_Direction
227 224 231 233 239 242 244 246 250 255 265 283 278 273 276 279 282 284 282 281 281 282 282 282 283 289 294 299 302 306 309 310 312 313 311 311 311 311 311 309 307 309 310 305
233 238 240 243 242 250 260 258 272 279 287 283 275 273 273 271 274 278 279 277 276 277 281 285 287 291 294 298 302 305 308 309 311 311 310 310 312 313 311 310 311 308 309 309
234 242 243 248 250 256 263 268 271 280 289 291 286 278 275 275 276 278 277 274 273 277 282 282 286 288 292 297 301 306 307 308 310 310 308 308 311 312 311 311 306 310 308 308
232 246 247 245 247 255 258 266 276 283 288 287 289 288 283 278 276 275 275 274 274 276 277 281 284 290 295 299 303 305 304 305 305 306 309 309 312 312 309 310 309 312 305 303
239 250 254 254 255 258 261 267 276 281 280 283 286 288 284 280 275 275 276 278 280 281 280 282 287 293 296 299 301 302 301 304 307 311 310 309 311 309 309 309 311 310 306 302
251 251 249 254 259 255 261 268 269 271 275 280 283 288 284 285 282 283 285 282 280 278 280 284 288 292 295 295 297 298 304 307 309 310 308 309 310 308 309 309 313 314 306 301
250 250 249 249 250 260 261 262 265 272 273 276 278 281 281 284 285 288 288 286 284 283 284 286 290 292 294 295 298 299 305 304 308 308 307 309 310 309 309 311 314 312 304 300
234 238 244 247 255 258 259 265 268 270 273 276 281 282 284 285 287 285 284 284 285 286 287 288 290 290 291 294 297 300 302 303 305 306 308 308 307 306 308 315 308 304 300 301
237 240 249 252 260 264 266 268 269 269 272 275 279 283 285 285 283 282 281 283 284 284 285 286 288 292 295 295 297 301 304 306 306 306 307 305 304 305 307 310 304 296 289 293
244 249 251 257 260 263 265 266 269 273 276 277 279 281 281 280 278 278 280 281 283 285 290 292 293 293 293 295 302 306 306 305 305 306 304 302 302 303 310 308 302 294 292 287
253 256 257 259 262 264 267 271 274 277 278 280 280 280 280 281 280 277 278 282 287 290 294 294 293 294 297 301 303 303 302 301 301 301 302 303 301 305 308 303 298 290 293 283
253 257 259 262 264 266 270 273 276 278 279 279 278 277 279 278 275 277 283 286 288 289 290 292 292 294 297 300 300 299 297 297 298 296 302 306 303 302 301 297 292 292 295 284
258 258 260 261 263 265 268 271 274 276 277 275 273 273 272 272 275 278 281 285 287 288 290 294 295 295 296 296 296 295 294 296 295 297 301 305 307 309 297 287 291 288 284 286
257 259 260 263 266 268 270 271 273 273 273 273 272 272 272 273 276 279 282 285 287 289 293 294 294 294 293 294 293 291 291 291 290 294 297 304 302 307 295 282 266 272 261 274
260 263 265 266 268 268 268 269 270 270 269 269 270 271 272 274 277 279 282 285 284 285 291 292 292 292 293 292 289 286 287 288 287 294 295 298 296 301 298 287 275 254 263 277
265 265 265 266 265 265 267 266 265 265 265 266 268 269 272 274 277 281 282 283 285 289 288 289 289 290 291 288 286 288 290 290 289 289 292 295 291 291 280 284 263 261 268 279
264 265 265 265 265 266 267 268 268 266 265 267 268 271 274 276 278 279 281 286 293 294 290 287 287 287 286 282 285 286 290 294 291 290 288 288 288 283 275 247 250 264 278 284
263 262 263 265 266 268 268 268 269 268 267 268 271 271 272 274 275 279 287 292 292 290 287 285 282 281 279 280 281 287 291 291 289 288 286 284 289 289 287 279 294 286 300 298
262 261 260 260 261 263 265 267 265 267 271 268 268 272 276 276 276 278 281 287 287 285 283 279 276 276 278 283 282 284 286 287 281 278 281 285 284 284 283 282 285 288 287 288
261 261 261 260 261 261 262 264 267 268 271 272 271 271 268 263 276 274 279 284 286 281 276 273 276 278 281 282 282 282 284 283 280 278 281 284 286 288 287 287 285 285 286 285
256 257 258 261 263 263 263 263 274 276 268 267 267 263 256 264 274 276 276 276 277 270 272 275 278 282 284 284 284 282 283 284 282 281 283 285 285 283 285 286 287 286 286 287
248 247 249 253 257 262 268 273 271 273 269 259 271 267 262 266 270 271 269 265 267 270 273 278 284 288 288 286 285 285 282 282 285 287 288 288 287 287 286 286 286 287 287 287
221 236 248 260 262 265 261 266 255 256 249 250 261 270 264 265 268 270 269 267 267 273 280 284 285 284 283 282 281 282 283 284 285 284 285 286 286 286 286 286 286 287 287 287
201 226 237 239 238 243 258 257 258 264 259 258 261 265 267 268 273 273 277 278 277 278 280 281 282 280 279 278 279 281 283 284 285 285 285 285 286 285 286 284 285 286 286 286
139 160 191 218 231 250 268 262 268 269 270 272 273 273 273 273 275 277 279 280 282 281 278 277 278 277 277 281 283 283 285 287 286 284 284 284 283 279 284 284 285 286 284 283
153 220 256 267 262 254 252 259 269 275 274 273 274 275 280 282 283 282 282 282 282 281 279 278 278 280 281 279 281 285 289 287 285 284 281 276 283 287 289 288 286 282 280 281
281 273 266 270 273 273 273 276 280 283 281 279 280 285 286 286 284 283 283 282 280 280 280 280 279 279 278 278 280 283 284 282 279 269 271 283 289 290 289 286 284 282 282 284
Height
5870 5875 5877 5878 5878 5878 5880 5883 5883 5886 5881 5881 5876 5876 5875 5873 5871 5869 5868 5867 5865 5864 5862 5861 5860 5857 5853 5850 5845 5841 5838 5832 5827 5822 5817 5811 5805 5799 5793 5787 5782 5776 5769 5764
5864 5865 5868 5869 5871 5871 5873 5875 5873 5872 5871 5871 5869 5867 5867 5865 5864 5862 5861 5859 5857 5855 5854 5853 5851 5848 5844 5840 5837 5833 5828 5822 5818 5812 5806 5801 5795 5789 5782 5776 5771 5765 5760 5754
5858 5857 5860 5861 5861 5864 5865 5866 5866 5863 5861 5859 5860 5859 5857 5856 5854 5853 5852 5851 5848 5847 5846 5844 5842 5839 5835 5833 5829 5824 5819 5813 5809 5803 5797 5792 5786 5779 5773 5767 5760 5754 5748 5743
5853 5849 5850 5855 5854 5855 5857 5856 5855 5854 5852 5850 5850 5849 5847 5845 5844 5843 5842 5841 5839 5838 5837 5835 5833 5830 5827 5823 5818 5815 5809 5804 5800 5794 5789 5782 5776 5769 5763 5756 5750 5744 5737 5732
5840 5842 5847 5842 5845 5847 5847 5847 5847 5844 5842 5842 5841 5839 5835 5836 5834 5833 5833 5832 5831 5829 5828 5826 5823 5820 5818 5813 5808 5804 5799 5795 5790 5785 5779 5773 5765 5759 5752 5746 5739 5733 5728 5723
5831 5833 5836 5843 5836 5834 5836 5838 5839 5834 5834 5833 5832 5831 5824 5827 5826 5825 5825 5824 5822 5821 5819 5817 5814 5811 5808 5804 5799 5793 5789 5784 5780 5775 5769 5763 5756 5749 5742 5735 5730 5724 5718 5714
5820 5820 5826 5822 5823 5825 5827 5832 5825 5826 5825 5824 5824 5823 5820 5818 5818 5817 5816 5814 5813 5811 5809 5807 5804 5801 5798 5793 5788 5783 5779 5773 5769 5764 5759 5753 5746 5739 5733 5726 5721 5716 5712 5707
5810 5812 5814 5811 5812 5815 5815 5816 5817 5817 5816 5814 5814 5813 5811 5809 5809 5808 5806 5804 5803 5801 5799 5797 5794 5791 5787 5783 5777 5772 5768 5763 5760 5755 5749 5742 5736 5729 5723 5718 5713 5709 5705 5701
5800 5803 5799 5801 5803 5804 5804 5805 5806 5806 5807 5806 5805 5803 5802 5800 5798 5797 5796 5795 5794 5792 5788 5786 5783 5779 5775 5770 5766 5761 5757 5752 5748 5744 5738 5733 5726 5720 5715 5710 5705 5700 5698 5696
5789 5788 5790 5790 5791 5792 5792 5793 5793 5795 5795 5795 5794 5793 5792 5790 5789 5788 5786 5784 5783 5780 5777 5773 5770 5767 5763 5759 5755 5750 5745 5740 5736 5731 5726 5721 5716 5711 5707 5701 5696 5693 5691 5689
5776 5776 5778 5778 5780 5780 5779 5780 5781 5782 5782 5782 5781 5780 5779 5779 5778 5776 5775 5773 5771 5768 5765 5763 5759 5755 5751 5747 5743 5738 5733 5729 5724 5719 5715 5711 5706 5703 5699 5694 5690 5687 5685 5683
5762 5764 5767 5767 5766 5766 5767 5767 5768 5769 5770 5770 5770 5769 5769 5768 5765 5763 5762 5760 5759 5757 5754 5751 5747 5743 5739 5736 5732 5727 5722 5718 5714 5709 5705 5701 5697 5693 5690 5686 5683 5681 5679 5678
5748 5751 5753 5754 5754 5755 5756 5757 5757 5757 5757 5757 5757 5757 5757 5754 5752 5751 5750 5748 5746 5744 5740 5737 5734 5730 5727 5724 5719 5715 5711 5707 5703 5700 5696 5693 5688 5683 5680 5678 5677 5675 5674 5673
5734 5737 5738 5739 5742 5743 5744 5744 5744 5744 5744 5743 5743 5743 5742 5740 5739 5738 5737 5736 5733 5729 5725 5722 5720 5717 5714 5711 5707 5703 5700 5697 5694 5691 5687 5684 5680 5676 5672 5670 5669 5668 5668 5668
5723 5726 5728 5729 5729 5729 5731 5731 5731 5731 5730 5730 5729 5729 5727 5726 5725 5724 5723 5720 5718 5715 5712 5709 5707 5704 5701 5698 5695 5692 5689 5686 5684 5680 5678 5675 5672 5669 5665 5664 5663 5662 5663 5662
5711 5713 5715 5715 5716 5715 5716 5717 5718 5718 5717 5716 5715 5714 5714 5713 5712 5710 5708 5705 5703 5701 5697 5695 5693 5691 5689 5686 5683 5681 5678 5675 5673 5671 5668 5665 5664 5661 5659 5657 5655 5654 5655 5655
5699 5700 5700 5701 5702 5702 5703 5704 5704 5704 5703 5703 5702 5702 5701 5699 5698 5695 5691 5690 5688 5686 5684 5682 5680 5678 5676 5674 5672 5671 5668 5665 5663 5661 5658 5656 5654 5652 5652 5649 5648 5648 5648 5647
5685 5688 5688 5687 5688 5689 5690 5691 5691 5691 5690 5690 5689 5689 5687 5685 5683 5683 5680 5679 5675 5674 5672 5670 5668 5666 5666 5664 5662 5661 5658 5656 5653 5651 5650 5647 5646 5645 5643 5641 5639 5637 5638 5638
5670 5673 5675 5676 5676 5677 5678 5678 5679 5680 5679 5677 5675 5674 5674 5673 5671 5671 5672 5668 5665 5663 5661 5658 5657 5657 5656 5655 5653 5651 5649 5646 5645 5644 5642 5640 5639 5637 5636 5634 5633 5631 5632 5631
5655 5658 5660 5661 5664 5665 5666 5667 5667 5667 5666 5665 5664 5663 5661 5660 5662 5661 5660 5658 5656 5653 5650 5648 5648 5647 5646 5645 5643 5642 5640 5638 5637 5636 5635 5633 5631 5628 5627 5626 5625 5624 5622 5622
5638 5642 5646 5649 5651 5651 5653 5654 5654 5654 5653 5652 5651 5651 5652 5650 5653 5650 5648 5647 5645 5643 5641 5640 5638 5638 5637 5635 5633 5632 5630 5629 5627 5626 5625 5624 5622 5620 5619 5617 5616 5614 5612 5611
5624 5630 5634 5636 5639 5641 5642 5642 5642 5642 5641 5641 5643 5643 5643 5643 5641 5639 5637 5636 5636 5635 5633 5632 5630 5629 5627 5626 5624 5623 5622 5620 5619 5618 5616 5615 5613 5612 5610 5608 5607 5605 5603 5602
5615 5622 5627 5630 5631 5631 5632 5630 5631 5631 5633 5632 5634 5634 5633 5632 5632 5630 5628 5628 5627 5626 5624 5622 5621 5620 5618 5617 5616 5615 5614 5612 5611 5609 5607 5605 5604 5602 5601 5599 5597 5595 5594 5592
5614 5620 5622 5623 5625 5626 5626 5626 5626 5626 5627 5627 5627 5626 5625 5624 5624 5623 5620 5619 5618 5616 5615 5613 5612 5611 5609 5609 5607 5606 5604 5602 5601 5599 5597 5596 5594 5592 5591 5589 5588 5586 5585 5584
5616 5619 5621 5622 5623 5623 5623 5622 5622 5622 5622 5621 5620 5619 5619 5619 5617 5614 5612 5610 5608 5607 5606 5605 5603 5602 5601 5599 5598 5596 5595 5593 5591 5589 5588 5586 5585 5584 5583 5581 5580 5579 5577 5576
5618 5619 5620 5620 5620 5620 5619 5619 5619 5619 5618 5618 5616 5614 5612 5610 5607 5605 5603 5602 5600 5599 5597 5596 5594 5593 5591 5590 5589 5587 5586 5583 5581 5580 5579 5578 5578 5577 5575 5573 5572 5571 5570 5569
5617 5617 5617 5616 5616 5616 5616 5615 5614 5614 5612 5611 5609 5606 5604 5602 5600 5598 5596 5594 5592 5590 5588 5586 5584 5583 5582 5581 5579 5578 5576 5575 5574 5573 5573 5572 5571 5569 5568 5567 5566 5565 5564 5563